Location: Sawmill Trailhead
(33.5800°N, 116.4497°W)
Time: 22:06:24
(UTC-07:00)

Amateur Radio Satellites - All Passes

Search period start: 25 July 2014 21:36
Search period end: 26 July 2014 21:36
Location: Sawmill Trailhead, 33.5800°N, 116.4497°W

Satellite Date Start Highest point End Downlink Frequencies (MHz)
Time Altitude Azimuth
SO-50 25 Jul 21:36:36 21:40:05 20° 51° (NE) 21:43:36 436.795 FM
MaSat-1 25 Jul 21:54:28 21:58:11 90° 288° (WNW) 22:02:37 437.345 MHz
Oscar 11 25 Jul 21:55:22 21:59:40 81° 258° (WSW) 22:03:59 145.825 FM, Beacon 2401.500 USB
FUNcube-1 25 Jul 22:07:11 22:11:22 44° 74° (ENE) 22:15:28 145.950 - 145.970 MHz USB
Lituanica SAT-1 25 Jul 23:13:36 23:15:14 21° 321° (NW) 23:16:52 437.275 MHz beacon
AO-40 25 Jul 23:15:41 02:56:21 43° 188° (S) 08:39:57 Beacon 2401.320
SO-50 25 Jul 23:16:18 23:20:49 43° 246° (WSW) 23:25:23 436.795 FM
RS-15 25 Jul 23:33:17 23:44:26 84° 62° (ENE) 23:56:03 29.354 - 29.394 USB, Beacon 29.352 USB
FUNcube-1 25 Jul 23:46:07 23:47:55 12° 267° (W) 23:49:42 145.950 - 145.970 MHz USB
PCSat 25 Jul 23:48:37 23:49:22 10° 102° (ESE) 23:50:07 145.825 MHz
ISS 25 Jul 23:49:07 23:52:16 41° 132° (SE) 23:55:27 145.800 FM
UOSAT-12 25 Jul 23:56:17 00:00:33 33° 55° (NE) 00:04:46 437.025 FM, 437.400 FM
Sapphire 26 Jul 00:53:11 00:58:19 46° 110° (ESE) 01:03:28 437.095 MHz 1200 baud AX-25 AFSK
PCSat 26 Jul 01:26:38 01:32:02 78° 296° (WNW) 01:37:28 145.825 MHz
ISS 26 Jul 01:26:44 01:29:07 18° 327° (NNW) 01:31:30 145.800 FM
Oscar 19 26 Jul 01:29:36 01:33:42 24° 96° (E) 01:37:48 437.125 CW, 437.150 USB
UOSAT-12 26 Jul 01:36:51 01:40:29 22° 250° (WSW) 01:44:04 437.025 FM, 437.400 FM
RS-15 26 Jul 01:48:06 01:55:29 21° 258° (WSW) 02:03:06 29.354 - 29.394 USB, Beacon 29.352 USB
Oscar 16 26 Jul 01:56:41 02:01:40 48° 100° (E) 02:06:38 437.025 USB, Beacon 2401.1428
ITAMSAT 1 26 Jul 02:11:11 02:15:31 27° 97° (E) 02:19:49 435.822 SSB
AO-Echo 26 Jul 02:12:03 02:16:23 28° 96° (E) 02:20:34 ?
AO-27 26 Jul 02:29:04 02:33:58 42° 99° (E) 02:38:50 436.795 MHz FM
Uribyol 2 26 Jul 02:31:00 02:35:57 46° 100° (E) 02:40:52 436.500 FM
Gurwin Techsat 1B 26 Jul 02:34:02 02:37:33 18° 94° (E) 02:41:02 435.225 FM
Sapphire 26 Jul 02:37:54 02:41:56 21° 306° (NW) 02:46:00 437.095 MHz 1200 baud AX-25 AFSK
Oscar 10/S400 26 Jul 02:46:45 03:44:02 69° 205° (SSW) 13:05:43 145.825 - 145.975 CW/USB, Beacon 145.810 USB
Oscar 19 26 Jul 03:08:26 03:13:02 33° 289° (WNW) 03:17:37 437.125 CW, 437.150 USB
JAS-1B 26 Jul 03:14:55 03:24:15 67° 101° (E) 03:32:09 435.800 - 435.900 CW/SSB
PCSat 26 Jul 03:15:44 03:16:18 10° 314° (NW) 03:16:52 145.825 MHz
Oscar 16 26 Jul 03:37:19 03:40:36 17° 294° (WNW) 03:43:53 437.025 USB, Beacon 2401.1428
OPAL 26 Jul 03:47:10 03:52:04 66° 73° (ENE) 03:56:58 ?
TMSAT-1 26 Jul 03:50:07 03:55:26 77° 102° (ESE) 04:00:42 436.925 FM
ITAMSAT 1 26 Jul 03:50:29 03:54:55 30° 291° (WNW) 03:59:20 435.822 SSB
AO-Echo 26 Jul 03:50:49 03:55:00 26° 291° (WNW) 03:59:04 ?
Uosat F 26 Jul 04:06:29 04:10:15 21° 96° (E) 04:13:59 435.120 FM
AO-27 26 Jul 04:09:30 04:13:07 20° 293° (WNW) 04:16:44 436.795 MHz FM
Uribyol 2 26 Jul 04:11:40 04:15:01 18° 294° (WNW) 04:18:22 436.500 FM
Gurwin Techsat 1B 26 Jul 04:12:38 04:17:41 46° 288° (WNW) 04:22:42 435.225 FM
AO-7 26 Jul 04:49:14 04:57:22 55° 103° (ESE) 05:05:24 29.400 - 29.500 MHz
JAS-1B 26 Jul 05:06:28 05:13:46 27° 300° (WNW) 05:20:22 435.800 - 435.900 CW/SSB
KITSAT 1 26 Jul 05:23:43 05:29:51 24° 104° (ESE) 05:35:59 435.175 FM
Lituanica SAT-1 26 Jul 05:28:19 05:29:17 12° 36° (NE) 05:30:15 437.275 MHz beacon
OPAL 26 Jul 05:30:20 05:31:18 11° 266° (W) 05:32:17 ?
TMSAT-1 26 Jul 05:33:05 05:34:38 11° 297° (WNW) 05:36:11 436.925 FM
PANSAT 26 Jul 05:36:12 05:39:03 20° 163° (SSE) 05:41:55 not established
Uosat F 26 Jul 05:44:32 05:49:04 35° 289° (WNW) 05:53:34 435.120 FM
STRAND 1 26 Jul 06:05:34 06:10:04 31° 70° (ENE) 06:14:33 ?
MaSat-1 26 Jul 06:18:50 06:20:45 12° 51° (NE) 06:22:38 437.345 MHz
ISS 26 Jul 06:22:19 06:23:41 12° 28° (NNE) 06:25:03 145.800 FM
AO-7 26 Jul 06:42:47 06:49:39 30° 299° (WNW) 06:56:29 29.400 - 29.500 MHz
JAS-2 26 Jul 06:50:46 06:56:38 60° 100° (E) 07:01:55 435.800 - 435.900 CW/SSB, 435.910 FM
Hamsat 26 Jul 06:57:25 07:01:41 67° 284° (WNW) 07:05:59 145.90 MHz
Lituanica SAT-1 26 Jul 07:00:16 07:01:34 15° 230° (SW) 07:02:52 437.275 MHz beacon
PANSAT 26 Jul 07:15:17 07:18:51 36° 175° (S) 07:22:24 not established
KITSAT 1 26 Jul 07:16:36 07:24:35 62° 300° (WNW) 07:32:37 435.175 FM
Saudisat 1A 26 Jul 07:42:03 07:46:12 42° 114° (ESE) 07:50:23 436.775 MHz
STRAND 1 26 Jul 07:45:00 07:49:11 25° 264° (W) 07:53:24 ?
MaSat-1 26 Jul 07:53:31 07:58:51 87° 248° (WSW) 08:03:48 437.345 MHz
SO-67 26 Jul 07:55:29 07:58:58 89° 281° (WNW) 08:02:26 435.3500 MHz FM
ISS 26 Jul 07:57:26 08:00:48 87° 225° (SW) 08:04:09 145.800 FM
JAS-2 26 Jul 08:37:41 08:40:58 15° 299° (WNW) 08:44:05 435.800 - 435.900 CW/SSB, 435.910 FM
HO-68 26 Jul 08:51:32 08:57:16 26° 96° (E) 09:02:58 435.675 MHz FM
PANSAT 26 Jul 08:55:13 08:58:44 34° 188° (S) 09:02:14 not established
UKube-1 26 Jul 09:00:27 09:02:34 13° 94° (E) 09:04:41 145.840 MHz, 145.915 MHz
KITSAT 1 26 Jul 09:18:08 09:21:43 13° 322° (NW) 09:25:19 435.175 FM
Saudisat 1A 26 Jul 09:23:01 09:25:58 17° 310° (NW) 09:28:56 436.775 MHz
Sapphire 26 Jul 09:46:10 09:49:45 18° 52° (NE) 09:53:19 437.095 MHz 1200 baud AX-25 AFSK
Oscar 11 26 Jul 09:47:37 09:51:09 24° 96° (E) 09:54:41 145.825 FM, Beacon 2401.500 USB
FUNcube-1 26 Jul 10:02:47 10:03:55 11° 93° (E) 10:05:04 145.950 - 145.970 MHz USB
PCSat 26 Jul 10:18:55 10:23:53 36° 58° (ENE) 10:28:49 145.825 MHz
UKube-1 26 Jul 10:34:50 10:38:56 41° 287° (WNW) 10:43:00 145.840 MHz, 145.915 MHz
PANSAT 26 Jul 10:35:56 10:38:28 17° 200° (SSW) 10:40:59 not established
HO-68 26 Jul 10:38:18 10:45:08 50° 291° (WNW) 10:51:56 435.675 MHz FM
Oscar 11 26 Jul 11:23:47 11:27:12 23° 290° (WNW) 11:30:36 145.825 FM, Beacon 2401.500 USB
Sapphire 26 Jul 11:28:13 11:33:32 58° 248° (WSW) 11:38:49 437.095 MHz 1200 baud AX-25 AFSK
FUNcube-1 26 Jul 11:36:32 11:40:30 45° 286° (WNW) 11:44:31 145.950 - 145.970 MHz USB
RS-15 26 Jul 11:45:53 11:51:27 15° 100° (E) 11:56:56 29.354 - 29.394 USB, Beacon 29.352 USB
SO-50 26 Jul 11:49:36 11:51:40 13° 108° (ESE) 11:53:44 436.795 FM
PCSat 26 Jul 12:02:41 12:07:04 25° 253° (WSW) 12:11:26 145.825 MHz
Oscar 19 26 Jul 12:42:58 12:46:56 23° 68° (ENE) 12:50:54 437.125 CW, 437.150 USB
Oscar 16 26 Jul 13:09:47 13:14:39 46° 73° (ENE) 13:19:31 437.025 USB, Beacon 2401.1428
AO-Echo 26 Jul 13:20:48 13:25:08 26° 69° (ENE) 13:29:29 ?
ITAMSAT 1 26 Jul 13:25:24 13:29:47 28° 69° (ENE) 13:34:11 435.822 SSB
SO-50 26 Jul 13:27:26 13:31:44 49° 302° (WNW) 13:36:07 436.795 FM
AO-27 26 Jul 13:43:15 13:48:09 43° 72° (ENE) 13:53:05 436.795 MHz FM
Uribyol 2 26 Jul 13:44:54 13:49:52 47° 72° (ENE) 13:54:50 436.500 FM
RS-15 26 Jul 13:50:54 14:02:08 84° 116° (ESE) 14:13:06 29.354 - 29.394 USB, Beacon 29.352 USB
Gurwin Techsat 1B 26 Jul 13:51:27 13:55:12 20° 67° (ENE) 13:58:57 435.225 FM
JAS-1B 26 Jul 13:52:51 14:00:44 42° 65° (ENE) 14:09:33 435.800 - 435.900 CW/SSB
UOSAT-12 26 Jul 14:04:12 14:07:51 24° 110° (ESE) 14:11:34 437.025 FM, 437.400 FM
Oscar 19 26 Jul 14:21:27 14:26:02 34° 262° (W) 14:30:40 437.125 CW, 437.150 USB
Oscar 16 26 Jul 14:50:59 14:54:10 17° 266° (W) 14:57:22 437.025 USB, Beacon 2401.1428
AO-Echo 26 Jul 14:59:00 15:03:41 32° 263° (W) 15:08:26 ?
ITAMSAT 1 26 Jul 15:04:40 15:09:09 29° 263° (W) 15:13:39 435.822 SSB
TMSAT-1 26 Jul 15:06:48 15:12:05 80° 76° (ENE) 15:17:24 436.925 FM
KITSAT 1 26 Jul 15:14:40 15:21:51 34° 53° (NE) 15:28:58 435.175 FM
Uosat F 26 Jul 15:16:16 15:19:54 20° 67° (ENE) 15:23:31 435.120 FM
AO-27 26 Jul 15:24:15 15:27:48 18° 266° (W) 15:31:22 436.795 MHz FM
Uribyol 2 26 Jul 15:26:14 15:29:31 17° 266° (W) 15:32:48 436.500 FM
Gurwin Techsat 1B 26 Jul 15:29:47 15:34:48 43° 261° (W) 15:39:51 435.225 FM
JAS-1B 26 Jul 15:43:09 15:50:59 43° 264° (W) 15:59:58 435.800 - 435.900 CW/SSB
AO-7 26 Jul 15:43:34 15:51:34 52° 67° (ENE) 15:59:34 29.400 - 29.500 MHz
UOSAT-12 26 Jul 15:43:47 15:47:49 30° 306° (NW) 15:51:57 437.025 FM, 437.400 FM
OPAL 26 Jul 16:01:32 16:05:39 25° 98° (E) 16:09:47 ?
RS-15 26 Jul 16:06:57 16:15:46 27° 318° (NW) 16:24:33 29.354 - 29.394 USB, Beacon 29.352 USB
Saudisat 1A 26 Jul 16:14:08 16:16:08 13° 48° (NE) 16:18:07 436.775 MHz
Uosat F 26 Jul 16:53:41 16:58:22 39° 261° (W) 17:03:04 435.120 FM
JAS-2 26 Jul 16:57:53 17:03:34 23° 64° (ENE) 17:09:03 435.800 - 435.900 CW/SSB, 435.910 FM
KITSAT 1 26 Jul 17:09:44 17:17:23 49° 250° (WSW) 17:25:01 435.175 FM
AO-7 26 Jul 17:37:28 17:44:30 30° 262° (W) 17:51:35 29.400 - 29.500 MHz
OPAL 26 Jul 17:40:01 17:44:29 32° 292° (WNW) 17:48:59 ?
Hamsat 26 Jul 17:46:49 17:50:50 49° 75° (ENE) 17:54:52 145.90 MHz
Saudisat 1A 26 Jul 17:51:45 17:56:06 62° 244° (WSW) 18:00:25 436.775 MHz
STRAND 1 26 Jul 18:21:37 18:24:16 14° 93° (E) 18:26:55 ?
SO-67 26 Jul 18:26:02 18:28:09 16° 71° (ENE) 18:30:16 435.3500 MHz FM
JAS-2 26 Jul 18:40:06 18:47:55 69° 258° (WSW) 18:55:29 435.800 - 435.900 CW/SSB, 435.910 FM
HO-68 26 Jul 19:19:06 19:22:06 13° 57° (ENE) 19:25:05 435.675 MHz FM
SO-67 26 Jul 19:58:18 20:01:01 21° 264° (W) 20:03:45 435.3500 MHz FM
STRAND 1 26 Jul 19:58:46 20:03:43 53° 287° (WNW) 20:08:38 ?
Oscar 11 26 Jul 20:40:43 20:42:27 12° 67° (ENE) 20:44:11 145.825 FM, Beacon 2401.500 USB
RS-15 26 Jul 20:46:23 20:53:25 18° 33° (NNE) 21:00:32 29.354 - 29.394 USB, Beacon 29.352 USB
HO-68 26 Jul 21:01:31 21:08:42 82° 73° (ENE) 21:15:53 435.675 MHz FM
UKube-1 26 Jul 21:25:55 21:30:17 82° 257° (WSW) 21:34:40 145.840 MHz, 145.915 MHz
